TimeCDT,TemperatureF,Dew PointF,Humidity,Sea Level PressureIn,VisibilityMPH,Wind Direction,Wind SpeedMPH,Gust SpeedMPH,PrecipitationIn,Events,Conditions,WindDirDegrees,DateUTC
12:14 AM,66.2,57.2,73,29.82,10.0,SSE,10.4,-,N/A,,Clear,160,2013-09-27 05:14:00
12:35 AM,66.2,57.2,73,29.82,10.0,SSE,10.4,-,N/A,,Clear,160,2013-09-27 05:35:00
12:53 AM,66.2,57.2,73,29.82,10.0,SSE,10.4,-,N/A,,Clear,160,2013-09-27 05:53:00
1:14 AM,68.0,57.2,68,29.82,10.0,SSE,11.5,-,N/A,,Clear,160,2013-09-27 06:14:00
1:35 AM,68.0,57.2,68,29.81,10.0,SSE,10.4,18.4,N/A,,Clear,160,2013-09-27 06:35:00
1:53 AM,66.2,57.2,73,29.82,10.0,SSE,11.5,-,N/A,,Clear,160,2013-09-27 06:53:00
2:15 AM,66.2,57.2,73,29.82,10.0,SSE,11.5,-,N/A,,Clear,160,2013-09-27 07:15:00
2:35 AM,66.2,57.2,73,29.82,10.0,SSE,11.5,-,N/A,,Clear,150,2013-09-27 07:35:00
2:53 AM,66.2,57.2,73,29.82,10.0,SSE,10.4,-,N/A,,Clear,150,2013-09-27 07:53:00
3:15 AM,66.2,57.2,73,29.81,10.0,SSE,11.5,-,N/A,,Clear,150,2013-09-27 08:15:00
3:34 AM,64.4,57.2,77,29.81,10.0,SSE,9.2,-,N/A,,Scattered Clouds,160,2013-09-27 08:34:00
3:52 AM,64.4,57.2,77,29.81,10.0,SSE,8.1,-,N/A,,Scattered Clouds,150,2013-09-27 08:52:00
4:14 AM,64.4,57.2,77,29.80,10.0,SE,4.6,-,N/A,,Scattered Clouds,140,2013-09-27 09:14:00
4:35 AM,62.6,57.2,82,29.80,10.0,SE,5.8,-,N/A,,Clear,130,2013-09-27 09:35:00
4:53 AM,62.6,57.2,82,29.80,10.0,ESE,6.9,-,N/A,,Clear,120,2013-09-27 09:53:00
5:15 AM,62.6,57.2,82,29.80,10.0,SE,5.8,-,N/A,,Scattered Clouds,130,2013-09-27 10:15:00
5:34 AM,62.6,57.2,82,29.81,10.0,SSE,5.8,-,N/A,,Scattered Clouds,150,2013-09-27 10:34:00
5:53 AM,64.4,57.2,77,29.82,10.0,SSE,5.8,-,N/A,,Mostly Cloudy,150,2013-09-27 10:53:00
6:15 AM,64.4,59.0,83,29.83,10.0,SSE,8.1,-,N/A,,Overcast,150,2013-09-27 11:15:00
6:34 AM,62.6,59.0,88,29.83,7.0,SSE,6.9,-,0.01,Rain,Rain,150,2013-09-27 11:34:00
6:53 AM,62.6,60.8,94,29.82,10.0,SE,6.9,-,0.08,Rain,Light Rain,130,2013-09-27 11:53:00
7:15 AM,62.6,60.8,94,29.81,7.0,SE,10.4,-,0.01,Rain,Rain,140,2013-09-27 12:15:00
7:35 AM,62.6,60.8,94,29.79,10.0,SE,8.1,-,0.04,Rain,Light Rain,130,2013-09-27 12:35:00
7:53 AM,62.6,60.8,94,29.79,7.0,SE,11.5,-,0.04,,Scattered Clouds,130,2013-09-27 12:53:00
8:14 AM,62.6,60.8,94,29.77,7.0,SE,12.7,18.4,N/A,,Clear,140,2013-09-27 13:14:00
8:34 AM,62.6,60.8,94,29.78,10.0,SE,13.8,-,N/A,,Clear,140,2013-09-27 13:34:00
8:53 AM,64.4,62.6,94,29.77,10.0,SSE,9.2,-,N/A,,Scattered Clouds,150,2013-09-27 13:53:00
9:15 AM,66.2,62.6,88,29.79,10.0,SSE,12.7,20.7,N/A,,Scattered Clouds,160,2013-09-27 14:15:00
9:34 AM,66.2,62.6,88,29.79,10.0,SSE,17.3,25.3,N/A,,Scattered Clouds,150,2013-09-27 14:34:00
9:53 AM,68.0,62.6,83,29.79,10.0,SSE,16.1,20.7,N/A,,Scattered Clouds,150,2013-09-27 14:53:00
10:15 AM,69.8,62.6,78,29.78,10.0,SSE,13.8,21.9,N/A,,Scattered Clouds,160,2013-09-27 15:15:00
10:34 AM,69.8,62.6,78,29.78,10.0,SSE,17.3,23.0,N/A,,Clear,160,2013-09-27 15:34:00
10:53 AM,69.8,62.6,78,29.78,10.0,South,12.7,20.7,N/A,,Scattered Clouds,170,2013-09-27 15:53:00
11:15 AM,69.8,62.6,78,29.78,10.0,South,16.1,23.0,N/A,,Mostly Cloudy,180,2013-09-27 16:15:00
11:35 AM,69.8,62.6,78,29.77,3.0,South,15.0,25.3,0.01,Rain,Light Rain,170,2013-09-27 16:35:00
11:53 AM,69.8,62.6,78,29.77,10.0,South,20.7,27.6,0.01,,Scattered Clouds,170,2013-09-27 16:53:00
12:15 PM,71.6,62.6,73,29.76,10.0,South,20.7,27.6,N/A,,Scattered Clouds,180,2013-09-27 17:15:00
12:35 PM,71.6,62.6,73,29.76,10.0,South,19.6,27.6,N/A,,Scattered Clouds,170,2013-09-27 17:35:00
12:52 PM,71.6,62.6,73,29.73,10.0,SSE,11.5,26.5,N/A,,Scattered Clouds,160,2013-09-27 17:52:00
1:14 PM,69.8,62.6,78,29.75,10.0,South,15.0,21.9,N/A,Rain,Light Rain,180,2013-09-27 18:14:00
1:34 PM,71.6,62.6,73,29.75,10.0,South,12.7,20.7,N/A,,Mostly Cloudy,180,2013-09-27 18:34:00
1:53 PM,71.6,62.6,73,29.70,10.0,SE,16.1,27.6,N/A,,Scattered Clouds,140,2013-09-27 18:53:00
2:15 PM,69.8,62.6,78,29.74,10.0,SSE,15.0,23.0,N/A,,Scattered Clouds,160,2013-09-27 19:15:00
2:35 PM,69.8,62.6,78,29.72,10.0,SSE,12.7,-,N/A,,Scattered Clouds,150,2013-09-27 19:35:00
2:53 PM,71.6,62.6,73,29.72,10.0,SSE,17.3,21.9,0.01,,Scattered Clouds,150,2013-09-27 19:53:00
3:14 PM,71.6,62.6,73,29.73,10.0,SSE,19.6,26.5,N/A,,Scattered Clouds,160,2013-09-27 20:14:00
3:34 PM,71.6,62.6,73,29.73,10.0,SSE,17.3,24.2,N/A,,Overcast,160,2013-09-27 20:34:00
3:53 PM,71.6,62.6,73,29.73,10.0,SSE,16.1,21.9,N/A,,Overcast,160,2013-09-27 20:53:00
4:15 PM,73.4,62.6,69,29.73,10.0,South,16.1,25.3,N/A,,Mostly Cloudy,170,2013-09-27 21:15:00
4:35 PM,71.6,62.6,73,29.74,10.0,South,17.3,23.0,N/A,,Overcast,170,2013-09-27 21:35:00
4:52 PM,71.6,62.6,73,29.74,10.0,South,13.8,19.6,N/A,,Overcast,170,2013-09-27 21:52:00
5:15 PM,73.4,62.6,69,29.73,10.0,SSE,12.7,-,N/A,,Mostly Cloudy,160,2013-09-27 22:15:00
5:35 PM,73.4,64.4,73,29.72,10.0,SSE,18.4,21.9,N/A,,Scattered Clouds,150,2013-09-27 22:35:00
5:53 PM,73.4,64.4,73,29.72,10.0,South,15.0,-,N/A,,Clear,170,2013-09-27 22:53:00
6:15 PM,73.4,62.6,69,29.72,10.0,South,10.4,-,N/A,,Clear,170,2013-09-27 23:15:00
6:35 PM,73.4,62.6,69,29.74,10.0,South,11.5,18.4,N/A,,Scattered Clouds,170,2013-09-27 23:35:00
6:53 PM,71.6,62.6,73,29.74,10.0,South,17.3,24.2,N/A,,Clear,190,2013-09-27 23:53:00
7:14 PM,71.6,60.8,69,29.74,10.0,South,15.0,-,N/A,,Light Drizzle,190,2013-09-28 00:14:00
7:34 PM,71.6,60.8,69,29.72,10.0,South,15.0,21.9,N/A,,Scattered Clouds,170,2013-09-28 00:34:00
7:53 PM,71.6,60.8,69,29.73,10.0,SSW,11.5,-,N/A,,Scattered Clouds,200,2013-09-28 00:53:00
8:15 PM,71.6,60.8,69,29.73,10.0,South,10.4,-,N/A,,Clear,190,2013-09-28 01:15:00
8:35 PM,69.8,60.8,73,29.73,10.0,South,5.8,-,N/A,,Clear,190,2013-09-28 01:35:00
8:53 PM,69.8,60.8,73,29.74,10.0,WSW,6.9,-,N/A,,Clear,250,2013-09-28 01:53:00
9:15 PM,69.8,60.8,73,29.75,10.0,SW,6.9,-,N/A,,Clear,230,2013-09-28 02:15:00
9:35 PM,64.4,59.0,83,29.75,10.0,West,10.4,-,N/A,,Clear,260,2013-09-28 02:35:00
9:53 PM,62.6,57.2,82,29.75,10.0,WSW,3.5,-,N/A,,Clear,240,2013-09-28 02:53:00
10:15 PM,62.6,57.2,82,29.74,10.0,Calm,Calm,-,N/A,,Clear,0,2013-09-28 03:15:00
10:34 PM,60.8,57.2,88,29.74,10.0,West,3.5,-,N/A,,Clear,260,2013-09-28 03:34:00
10:53 PM,60.8,57.2,88,29.75,10.0,WSW,3.5,-,N/A,,Clear,250,2013-09-28 03:53:00
11:15 PM,60.8,57.2,88,29.74,10.0,Calm,Calm,-,N/A,Rain-Thunderstorm,Thunderstorms and Rain,0,2013-09-28 04:15:00
11:34 PM,60.8,57.2,88,29.75,10.0,West,6.9,-,N/A,,Mostly Cloudy,270,2013-09-28 04:34:00
11:53 PM,59.0,55.4,88,29.76,10.0,WNW,11.5,-,N/A,,Overcast,300,2013-09-28 04:53:00